This is the latest recevied weather packets stored in our database for station/object AI5BL. If no packets are shown the sender has not sent any weather packets the latest 10 day(s).
| Time | Temp. | Humidity | Pressure | Rain* | Wind** | Luminosity | Snow |
|---|---|---|---|---|---|---|---|
| 1777313019 | 30° C | 60% | 1017.5 hPa | 0 mm | - | 840 W/m² | - |
| 1777312716 | 30° C | 62% | 1017.5 hPa | 0 mm | - | 898 W/m² | - |
| 1777312412 | 30.56° C | 60% | 1017.6 hPa | 0 mm | - | 388 W/m² | - |
| 1777312109 | 30.56° C | 58% | 1017.5 hPa | 0 mm | - | 394 W/m² | - |
| 1777311806 | 30° C | 58% | 1017.5 hPa | 0 mm | - | 659 W/m² | - |
| 1777311498 | 30.56° C | 55% | 1017.6 hPa | 0 mm | - | 423 W/m² | - |
| 1777311196 | 30° C | 62% | 1017.6 hPa | 0 mm | - | 795 W/m² | - |
| 1777310894 | 30° C | 56% | 1017.7 hPa | 0 mm | - | 761 W/m² | - |
| 1777310591 | 30° C | 60% | 1017.8 hPa | 0 mm | - | 457 W/m² | - |
| 1777310288 | 30° C | 60% | 1017.5 hPa | 0 mm | - | 738 W/m² | - |
| 1777309985 | 30.56° C | 56% | 1017.6 hPa | 0 mm | - | 680 W/m² | - |
| 1777309683 | 30° C | 55% | 1017.8 hPa | 0 mm | - | 787 W/m² | - |
| 1777309380 | 30° C | 59% | 1017.8 hPa | 0 mm | - | 787 W/m² | - |
| 1777309078 | 30° C | 61% | 1017.9 hPa | 0 mm | - | 768 W/m² | - |
| 1777308774 | 30° C | 58% | 1017.8 hPa | 0 mm | - | 743 W/m² | - |
| 1777308470 | 30° C | 57% | 1017.9 hPa | 0 mm | - | 762 W/m² | - |
| 1777308166 | 29.44° C | 55% | 1018 hPa | 0 mm | - | 789 W/m² | - |
| 1777307862 | 29.44° C | 61% | 1017.9 hPa | 0 mm | - | 790 W/m² | - |
| 1777307560 | 30° C | 60% | 1018 hPa | 0 mm | - | 444 W/m² | - |
| 1777307256 | 30° C | 61% | 1017.9 hPa | 0 mm | - | 762 W/m² | - |
| 1777306954 | 30° C | 61% | 1017.9 hPa | 0 mm | - | 721 W/m² | - |
| 1777306651 | 29.44° C | 56% | 1017.8 hPa | 0 mm | - | 712 W/m² | - |
| 1777306347 | 29.44° C | 55% | 1017.8 hPa | 0 mm | - | 697 W/m² | - |
| 1777306041 | 29.44° C | 64% | 1018.1 hPa | 0 mm | - | 688 W/m² | - |
| 1777305739 | 28.89° C | 61% | 1017.9 hPa | 0 mm | - | 677 W/m² | - |
* Rain latest hour (hover to see other rain measurements)
** Current wind speed in m/s (hover to see current wind gust speed)